TimeCST,TemperatureF,Dew PointF,Humidity,Sea Level PressureIn,VisibilityMPH,Wind Direction,Wind SpeedMPH,Gust SpeedMPH,PrecipitationIn,Events,Conditions,WindDirDegrees,DateUTC
12:15 AM,32.2,28.6,87,29.91,10.0,East,4.6,-,N/A,,Clear,100,2013-12-28 06:15:00
12:34 AM,30.0,27.7,91,29.90,10.0,Calm,Calm,-,N/A,,Clear,0,2013-12-28 06:34:00
12:55 AM,34.3,30.2,85,29.89,10.0,SW,4.6,-,N/A,,Clear,220,2013-12-28 06:55:00
1:15 AM,36.9,31.3,80,29.88,10.0,SSW,10.4,16.1,N/A,,Clear,210,2013-12-28 07:15:00
1:34 AM,37.9,31.5,77,29.87,10.0,SW,15.0,-,N/A,,Clear,220,2013-12-28 07:34:00
1:55 AM,37.6,31.3,78,29.86,10.0,SW,17.3,23.0,N/A,,Clear,220,2013-12-28 07:55:00
2:15 AM,37.8,31.6,79,29.85,10.0,SW,19.6,25.3,N/A,,Clear,220,2013-12-28 08:15:00
2:35 AM,38.5,31.8,77,29.85,10.0,SW,16.1,26.5,N/A,,Clear,220,2013-12-28 08:35:00
2:55 AM,38.3,31.5,76,29.85,10.0,SW,15.0,20.7,N/A,,Clear,220,2013-12-28 08:55:00
3:14 AM,38.5,31.1,75,29.84,10.0,SSW,9.2,18.4,N/A,,Clear,210,2013-12-28 09:14:00
3:35 AM,38.5,31.1,75,29.83,10.0,SSW,15.0,-,N/A,,Clear,210,2013-12-28 09:35:00
3:54 AM,38.5,30.9,74,29.82,10.0,SSW,12.7,17.3,N/A,,Clear,210,2013-12-28 09:54:00
4:15 AM,37.4,30.2,75,29.80,10.0,SSW,10.4,16.1,N/A,,Clear,210,2013-12-28 10:15:00
4:35 AM,37.0,30.2,76,29.78,10.0,SSW,12.7,18.4,N/A,,Clear,210,2013-12-28 10:35:00
4:55 AM,37.9,30.4,74,29.77,10.0,SW,12.7,19.6,N/A,,Clear,220,2013-12-28 10:55:00
5:14 AM,39.0,30.4,71,29.76,10.0,SW,15.0,19.6,N/A,,Clear,220,2013-12-28 11:14:00
5:35 AM,40.1,30.6,69,29.76,10.0,SW,17.3,23.0,N/A,,Clear,220,2013-12-28 11:35:00
5:55 AM,39.6,30.2,69,29.75,10.0,SSW,16.1,-,N/A,,Clear,210,2013-12-28 11:55:00
6:15 AM,39.4,30.0,69,29.74,10.0,SSW,12.7,-,N/A,,Clear,210,2013-12-28 12:15:00
6:35 AM,39.4,30.0,69,29.74,10.0,SSW,6.9,-,N/A,,Clear,200,2013-12-28 12:35:00
6:55 AM,39.4,30.0,69,29.73,10.0,SW,4.6,-,N/A,,Clear,220,2013-12-28 12:55:00
7:15 AM,40.3,30.2,67,29.73,10.0,SW,6.9,-,N/A,,Clear,220,2013-12-28 13:15:00
7:35 AM,40.3,30.2,67,29.72,10.0,SSW,10.4,-,N/A,,Clear,210,2013-12-28 13:35:00
7:55 AM,40.5,30.0,66,29.71,10.0,SSW,6.9,-,N/A,,Clear,210,2013-12-28 13:55:00
8:15 AM,39.7,30.0,68,29.71,10.0,Calm,Calm,-,N/A,,Clear,0,2013-12-28 14:15:00
8:35 AM,41.0,29.8,64,29.69,10.0,SSW,9.2,-,N/A,,Clear,200,2013-12-28 14:35:00
8:55 AM,40.3,29.7,66,29.70,10.0,SSW,3.5,-,N/A,,Clear,200,2013-12-28 14:55:00
9:15 AM,42.1,29.5,61,29.69,10.0,SW,5.8,-,N/A,,Clear,230,2013-12-28 15:15:00
9:34 AM,42.8,29.5,59,29.68,10.0,SSW,6.9,16.1,N/A,,Clear,200,2013-12-28 15:34:00
9:55 AM,43.9,29.8,58,29.68,10.0,SW,9.2,-,N/A,,Clear,230,2013-12-28 15:55:00
10:15 AM,43.0,29.8,60,29.68,10.0,West,5.8,-,N/A,,Clear,260,2013-12-28 16:15:00
10:34 AM,43.3,29.8,59,29.68,10.0,West,8.1,16.1,N/A,,Clear,260,2013-12-28 16:34:00
10:55 AM,43.0,30.0,60,29.67,10.0,SW,9.2,-,N/A,,Clear,230,2013-12-28 16:55:00
11:15 AM,42.8,30.2,61,29.66,10.0,SW,11.5,-,N/A,,Clear,230,2013-12-28 17:15:00
11:35 AM,42.1,30.0,62,29.66,10.0,WSW,9.2,18.4,N/A,,Clear,250,2013-12-28 17:35:00
11:55 AM,42.1,30.2,63,29.68,10.0,NNW,10.4,-,N/A,,Clear,330,2013-12-28 17:55:00
12:15 PM,41.9,30.7,65,29.68,10.0,WNW,10.4,-,N/A,,Clear,290,2013-12-28 18:15:00
12:35 PM,41.5,30.9,66,29.68,10.0,West,9.2,-,N/A,,Clear,280,2013-12-28 18:35:00
12:54 PM,41.0,30.7,67,29.68,10.0,WNW,10.4,-,N/A,,Clear,290,2013-12-28 18:54:00
1:15 PM,41.2,31.3,68,29.68,10.0,WNW,12.7,-,N/A,,Clear,290,2013-12-28 19:15:00
1:35 PM,40.8,31.6,70,29.69,10.0,WNW,11.5,-,N/A,,Clear,300,2013-12-28 19:35:00
1:55 PM,40.1,31.8,72,29.69,10.0,NW,12.7,18.4,N/A,,Clear,310,2013-12-28 19:55:00
2:15 PM,34.9,30.2,83,29.71,10.0,NNW,18.4,31.1,N/A,,Clear,330,2013-12-28 20:15:00
2:35 PM,33.3,29.5,86,29.73,10.0,NW,23.0,28.8,N/A,,Clear,320,2013-12-28 20:35:00
2:54 PM,30.0,27.3,90,29.76,10.0,NNW,19.6,28.8,N/A,,Mostly Cloudy,340,2013-12-28 20:54:00
3:15 PM,27.5,26.1,94,29.78,7.0,NW,25.3,34.5,N/A,,Overcast,320,2013-12-28 21:15:00
3:35 PM,25.7,24.6,96,29.80,5.0,NW,29.9,34.5,N/A,,Overcast,320,2013-12-28 21:35:00
3:55 PM,23.7,22.8,96,29.82,5.0,NNW,23.0,31.1,N/A,,Overcast,330,2013-12-28 21:55:00
4:15 PM,21.6,20.7,96,29.84,5.0,NW,27.6,38.0,N/A,,Overcast,320,2013-12-28 22:15:00
4:35 PM,20.5,19.2,95,29.87,4.0,NNW,25.3,36.8,N/A,,Overcast,330,2013-12-28 22:35:00
4:55 PM,19.2,17.6,93,29.91,4.0,NW,29.9,40.3,N/A,,Overcast,320,2013-12-28 22:55:00
5:15 PM,16.9,14.7,91,29.93,3.0,NW,29.9,36.8,N/A,Snow,Light Snow,320,2013-12-28 23:15:00
5:35 PM,14.5,11.7,88,29.96,2.5,NW,26.5,38.0,N/A,Snow,Light Snow,320,2013-12-28 23:35:00
5:55 PM,12.7,9.5,87,29.98,3.0,NNW,24.2,40.3,N/A,Snow,Light Snow,330,2013-12-28 23:55:00
6:15 PM,11.7,8.4,87,30.00,3.0,NW,26.5,42.6,N/A,Snow,Light Snow,320,2013-12-29 00:15:00
6:35 PM,10.4,7.0,86,30.02,2.5,NW,25.3,41.4,N/A,Snow,Light Snow,320,2013-12-29 00:35:00
6:55 PM,9.0,5.2,85,30.03,4.0,NNW,26.5,43.7,N/A,,Overcast,330,2013-12-29 00:55:00
7:15 PM,7.7,4.1,85,30.05,4.0,NW,27.6,42.6,N/A,,Overcast,320,2013-12-29 01:15:00
7:35 PM,7.0,3.2,84,30.07,3.0,NW,31.1,44.9,N/A,,Overcast,320,2013-12-29 01:35:00
7:55 PM,6.4,3.0,86,30.08,2.0,NW,28.8,43.7,N/A,,Overcast,320,2013-12-29 01:55:00
8:15 PM,5.5,2.1,86,30.09,2.0,NNW,25.3,48.3,N/A,,Overcast,330,2013-12-29 02:15:00
8:34 PM,4.6,0.9,84,30.12,2.5,NW,25.3,39.1,N/A,,Overcast,320,2013-12-29 02:34:00
8:55 PM,4.3,0.1,83,30.13,3.0,NW,29.9,39.1,N/A,,Overcast,320,2013-12-29 02:55:00
9:15 PM,4.1,-0.0,83,30.14,3.0,NNW,33.4,41.4,N/A,,Overcast,330,2013-12-29 03:15:00
9:35 PM,3.2,-0.8,84,30.16,2.5,NNW,25.3,39.1,N/A,,Overcast,330,2013-12-29 03:35:00
9:55 PM,2.3,-1.8,83,30.18,2.5,NNW,26.5,36.8,N/A,,Overcast,330,2013-12-29 03:55:00
10:15 PM,1.6,-2.9,81,30.19,7.0,NNW,25.3,36.8,N/A,,Overcast,330,2013-12-29 04:15:00
10:35 PM,1.2,-4.0,79,30.20,10.0,NW,26.5,39.1,N/A,,Overcast,320,2013-12-29 04:35:00
10:55 PM,1.2,-3.8,79,30.22,7.0,NNW,31.1,39.1,N/A,,Overcast,330,2013-12-29 04:55:00
11:15 PM,0.7,-4.2,80,30.22,7.0,NNW,26.5,36.8,N/A,,Overcast,330,2013-12-29 05:15:00
11:35 PM,-0.2,-5.4,79,30.23,10.0,NNW,31.1,41.4,N/A,,Overcast,330,2013-12-29 05:35:00
11:55 PM,-1.3,-6.5,79,30.25,10.0,NNW,29.9,40.3,N/A,,Overcast,330,2013-12-29 05:55:00